Regional Weather Roundup
Issued by NWS Sterling, VA

Home | Current Version | Previous Version | Graphics & Text | Print | Product List | Glossary On
Versions: 1 2 3 4 5 6 7 8 9 10 11 12 13 14 15 16 17 18 19 20 21 22 23 24 25 26 27
000
ASUS41 KLWX 291510
RWRLWX

REGIONAL WEATHER ROUNDUP
NATIONAL WEATHER SERVICE BALTIMORE MD/WASHINGTON DC
1100 AM EDT FRI APR 29 2016

Note: "FAIR" indicates few or no clouds below 12,000 feet
with no significant weather and/or obstructions to visibility.
 TC=TEMPERATURE CELSIUS

 * =Non NWS site. Station does not report precipitation (e.g. rain,
    snow, etc.), thunder, or fog.

DCZ001-MDZ009-015-VAZ040>042-051-053>054-291600-
WASHINGTON METRO

CITY           SKY/WX    TMP DP  RH WIND       PRES   REMARKS
WASHINGTON NAT DRIZZLE   50  48  93 E3        30.09R FOG
DULLES         CLOUDY    49  46  90 E7        30.07R FOG
ANDREWS AFB    LGT RAIN  49  47  96 E7        30.05F
FT BELVOIR     CLOUDY    50  48  91 VRB1      30.08R
QUANTICO       CLOUDY    51  48  89 E7        30.08R
COLLEGE PARK*  CLOUDY    46  46 100 E3        30.07S
LEESBURG*      CLOUDY    50  50 100 E3        30.08S FOG
MANASSAS*      CLOUDY    50  50 100 CALM      30.07R FOG
GAITHERSBURG*  CLOUDY    46  43  87 E5        30.11S

$$

MDZ006>007-011-014-291600-
BALTIMORE METRO

CITY           SKY/WX    TMP DP  RH WIND       PRES   REMARKS
BWI AIRPORT    LGT RAIN  49  47  93 E9        30.07S FOG
MD SCIENCE CTR   N/A     48  46  93 MISG      30.08S
MARTIN STATE   DRIZZLE   48  48 100 CALM      30.11R
ANNAPOLIS      CLOUDY    49  48  97 MISG      30.08R FOG
FORT MEADE*    CLOUDY    46  46 100 E7        30.10R

$$

MDZ012-015-019>023-291600-
MARYLAND EASTERN SHORE

CITY           SKY/WX    TMP DP  RH WIND       PRES   REMARKS
OCEAN CITY     CLOUDY    52  48  86 NE10      30.03R
SALISBURY      CLOUDY    52  50  93 NE8       30.03S FOG
CAMBRIDGE*     CLOUDY    50  50 100 NE3       30.05S
EASTON*        CLOUDY   N/A N/A N/A NE3       30.10S FOG

$$

MDZ017>025-291600-
SOUTHERN MARYLAND

CITY           SKY/WX    TMP DP  RH WIND       PRES   REMARKS
PATUXENT RIVER DRIZZLE   52  50  93 NE7       30.06R FOG
ST INIGOES     CLOUDY    53  51  93 NE3       30.05S FOG
LEONARDTOWN*   CLOUDY    50  48  93 NE3       30.08R

$$

MDZ003>005-291600-
NORTH CENTRAL MARYLAND

CITY           SKY/WX    TMP DP  RH WIND       PRES   REMARKS
FREDERICK*     CLOUDY    48  46  93 VRB3      30.10S FOG
HAGERSTOWN APT CLOUDY    48  44  86 E5        30.05F
WESTMINSTER*   RAIN      46  45  93 SE5       30.06F

$$

MDZ501>502-291600-
WESTERN MARYLAND

CITY           SKY/WX    TMP DP  RH WIND       PRES   REMARKS
OAKLAND*       CLOUDY    52  50  93 W7        29.99F
CUMBERLAND*    CLOUDY    50  46  87 SE3       30.06F

$$

VAZ025>031-291600-
SHENANDOAH VALLEY

CITY           SKY/WX    TMP DP  RH WIND       PRES   REMARKS
WINCHESTER*    CLOUDY    48  46  93 NE3       30.05R FOG
FRONT ROYAL*   CLOUDY    48  46  93 NE3       30.03F
LURAY*         CLOUDY    52  52 100 NE3       30.02F
NEW MARKET*    CLOUDY    51  49  95 NE6       30.01F
STAUNTON*      CLOUDY    55  55 100 E5        30.03R FOG
WAYNESBORO*    CLOUDY    56  55  96 MISG      30.00R

$$

WVZ021-048>050-054>055-291600-
EASTERN WEST VIRGINIA PANHANDLE

CITY           SKY/WX    TMP DP  RH WIND       PRES   REMARKS
MARTINSBURG    CLOUDY    47  45  93 E3        30.05S FOG
PETERSBURG*    CLOUDY    53  50  90 CALM      30.02S

$$

VAZ036>039-050-291600-
CENTRAL FOOTHILLS

CITY           SKY/WX    TMP DP  RH WIND       PRES   REMARKS
CHARLOTTESVILL CLOUDY    52  49  89 NE7       30.04R FOG
CULPEPER*      CLOUDY    51  49  95 CALM      30.07R FOG
ORANGE*        CLOUDY    50  50 100 NE6       30.06F FOG
GORDONSVILLE*  CLOUDY    50  50  98 N5        30.04S FOG
WARRENTON*     CLOUDY    51  46  82 E5        30.05S HAZE

$$

VAZ055>057-291600-
NORTH AND CENTRAL PIEDMONT

CITY           SKY/WX    TMP DP  RH WIND       PRES   REMARKS
FREDERICKSBRG* CLOUDY    52  52 100 NE3       30.06R
STAFFORD*      CLOUDY    50  48  92 NE5       30.10S FOG

$$

NCZ024-NYZ072-PAZ021-071-VAZ022-071-291600-
OTHER REGIONAL OBSERVATIONS

CITY           SKY/WX    TMP DP  RH WIND       PRES   REMARKS
NEW YORK CITY  CLOUDY    54  30  40 E10       30.14S
PHILADELPHIA   LGT RAIN  52  41  66 E10       30.09R
PITTSBURGH     CLOUDY    49  46  90 S3        29.98F FOG
ROANOKE        FAIR      68  58  70 SE5       30.00F
RICHMOND       CLOUDY    53  50  89 NE7       30.04S FOG
RALEIGH        MOSUNNY   67  61  81 VRB3      30.00F

$$

ANZ530>537-291600-
MARINE OBSERVATIONS

STATION/POSITION TIME  TEMP    WIND        PRES
                       AIR SEA DIR/SP/G
                 (UTC) (F)     (DEG/KT/KT) (MB)
THOMAS PT LIGHT  1500   48 57   40/  6/  7 1019.7R
BALT KEY BRIDGE  1400   48      60/  6/  9 1018.2R
COVE POINT       1400   50      60/  6/  9 1018.3R
LEWISETTA        1400   52 60   60/  6/  9 1017.0R
SOLOMONS ISLAND  1400   51 59   20/  7/  9   N/A
PINEY POINT      1400           40/  5/  6   N/A

$$





USA.gov is the U.S. government's official web portal to all federal, state and local government web resources and services.